This is the latest recevied weather packets stored in our database for station/object KF7ROW. If no packets are shown the sender has not sent any weather packets the latest 10 day(s).
| Time | Temp. | Humidity | Pressure | Rain* | Wind** | Luminosity | Snow |
|---|---|---|---|---|---|---|---|
| 1777767459 | 14.44° C | 83% | 1016.5 hPa | 0 mm | - | 358 W/m² | - |
| 1777767155 | 14.44° C | 82% | 1016.4 hPa | 0 mm | - | 373 W/m² | - |
| 1777766854 | 14.44° C | 84% | 1016.6 hPa | 0 mm | - | 388 W/m² | - |
| 1777766551 | 14.44° C | 82% | 1016.7 hPa | 0 mm | - | 406 W/m² | - |
| 1777766247 | 14.44° C | 84% | 1016.6 hPa | 0 mm | - | 427 W/m² | - |
| 1777765945 | 13.89° C | 85% | 1016.8 hPa | 0 mm | - | 406 W/m² | - |
| 1777765641 | 13.89° C | 84% | 1016.9 hPa | 0 mm | - | 303 W/m² | - |
| 1777765339 | 14.44° C | 83% | 1016.8 hPa | 0 mm | - | 211 W/m² | - |
| 1777765034 | 14.44° C | 84% | 1016.9 hPa | 0 mm | - | 186 W/m² | - |
| 1777764731 | 15° C | 83% | 1016.8 hPa | 0 mm | - | 319 W/m² | - |
| 1777764427 | 15° C | 82% | 1016.9 hPa | 0 mm | - | 431 W/m² | - |
| 1777764125 | 15° C | 80% | 1017.1 hPa | 0 mm | - | 394 W/m² | - |
| 1777763821 | 14.44° C | 83% | 1017.1 hPa | 0 mm | - | 216 W/m² | - |
| 1777763519 | 15° C | 82% | 1017 hPa | 0 mm | - | 268 W/m² | - |
| 1777763217 | 15° C | 81% | 1017.1 hPa | 0 mm | - | 414 W/m² | - |
| 1777762915 | 14.44° C | 82% | 1017.1 hPa | 0 mm | - | 271 W/m² | - |
| 1777762610 | 15° C | 83% | 1017.2 hPa | 0 mm | - | 312 W/m² | - |
| 1777762309 | 15° C | 83% | 1017.2 hPa | 0 mm | - | 438 W/m² | - |
| 1777762004 | 15° C | 82% | 1017.3 hPa | 0 mm | - | 557 W/m² | - |
| 1777761702 | 15° C | 82% | 1017.6 hPa | 0 mm | - | 629 W/m² | - |
| 1777761399 | 15° C | 82% | 1017.5 hPa | 0 mm | - | 618 W/m² | - |
| 1777761097 | 14.44° C | 85% | 1017.6 hPa | 0 mm | - | 376 W/m² | - |
| 1777760794 | 14.44° C | 82% | 1017.7 hPa | 0 mm | - | 312 W/m² | - |
| 1777760491 | 15° C | 82% | 1017.8 hPa | 0 mm | - | 526 W/m² | - |
| 1777760187 | 15° C | 83% | 1017.9 hPa | 0 mm | - | 783 W/m² | - |
* Rain latest hour (hover to see other rain measurements)
** Current wind speed in m/s (hover to see current wind gust speed)